sat.trackr.live / text

‹ back to catalog

STARLINK-35192

NORAD 65933 · 2025-225Z

PAYLOAD ACTIVE UNKNOWN

§ Identity

Operator
Country
US
Launch date
2025-10-08
Launch site
AFWTR
Launch vehicle
Mass (kg)
RCS (m²)

Purposes: comms

External: N2YO · Heavens-Above · Gunter

§ Orbital elements

Epoch: 2026-05-25T02:16:06.347424Z

Period
93.90 min
Inclination
53.1592°
Eccentricity
0.0001133
Mean motion
15.33566388 rev/d
Perigee alt
464.4 km
Apogee alt
466.0 km
Semi-major
6,843.3 km
B*
4.4796e-4
RAAN
170.9557°
Arg perigee
96.8445°
Mean anomaly
263.2686°
Rev number
3,610

§ Raw data

STARLINK-351921 65933U 25225Z   26145.09451791  .00014396  00000+0  44796-3 0  99912 65933  53.1592 170.9557 0001133  96.8445 263.2686 15.33566388 36102

JSON: /api/v1/satellites/65933 · /tle

For live sub-satellite position, see the globe view (requires WebGL).

§ Visibility from observer

Set your observer location to see the next 7 days of passes ≥ 10°. The values pass through the URL so the page stays shareable.

No JS? Fill the form by hand. The geolocation button needs JavaScript.